GFSFLT2_2pvu_pres_159.txt.gz
Presure
181 193 184 176 193 188 187 193 194 127 190 187 178 183 202 185 202 207 204 204 193 191 180 156 175 229 149 219 196 208 227 201
178 172 177 182 215 189 194 192 194 191 197 197 184 196 198 193 191 159 196 198 181 195 192 198 185 188 218 245 206 222 197 194
182 182 179 175 166 188 185 190 186 187 190 190 196 192 167 187 189 193 194 193 182 195 180 201 195 173 154 231 232 206 215 192
182 180 182 182 185 190 187 183 185 182 172 189 188 188 188 189 184 188 193 140 191 138 181 201 200 198 192 147 190 131 201 223
176 173 179 175 182 181 162 184 182 186 183 186 183 189 184 191 192 200 196 221 187 204 197 219 198 208 174 189 164 225 231 197
183 185 176 186 187 180 185 195 192 190 189 190 191 197 195 194 193 199 189 199 186 205 206 194 212 212 213 201 207 128 219 225
185 189 190 182 179 177 178 173 173 181 188 187 190 188 184 194 195 197 195 199 195 201 207 214 226 192 223 207 212 213 246 219
172 184 186 181 164 166 184 186 166 187 187 188 190 185 192 197 178 188 195 194 202 208 204 215 222 227 238 196 250 127 207 215
145 142 197 146 179 173 176 185 191 188 194 198 194 195 184 194 198 211 209 211 213 216 216 216 221 212 234 142 262 253 137 252
202 202 173 183 186 156 152 160 162 199 181 183 180 189 211 206 200 209 221 214 233 213 210 231 218 213 237 275 266 253 257 184
199 158 180 198 204 201 190 193 205 198 184 193 202 202 196 196 199 194 201 200 203 209 231 236 244 278 278 273 227 259 257 256
193 207 209 198 204 215 216 204 209 212 206 192 199 206 211 208 231 223 220 221 224 253 290 288 287 289 290 272 269 257 257 251
173 206 221 209 210 195 241 219 213 205 205 211 209 227 235 223 219 229 233 228 262 289 295 319 307 299 291 305 314 317 277 254
193 198 217 217 214 219 210 204 218 227 227 216 216 219 224 225 229 230 258 274 304 314 300 288 280 285 287 283 278 288 306 305
199 205 213 216 214 216 219 208 219 227 223 224 221 225 220 225 251 266 296 292 301 289 276 267 279 292 291 289 292 305 290 293
194 202 216 226 212 220 215 216 221 230 230 241 228 229 272 284 266 299 283 285 277 270 285 279 269 266 271 282 281 284 290 302
193 203 232 227 222 224 216 228 237 228 230 251 258 294 294 305 287 284 277 270 270 296 276 265 258 261 266 273 277 275 279 286
214 235 235 230 227 230 240 228 229 254 245 281 311 302 281 285 280 268 266 270 274 270 261 253 252 259 265 261 264 298 284 272
242 239 244 247 237 231 231 246 260 259 262 252 279 294 284 272 266 266 266 254 284 263 254 249 242 249 252 252 254 252 297 300
245 242 247 240 231 251 255 252 273 284 288 285 285 276 270 267 265 259 252 241 274 257 243 254 254 244 237 245 246 243 295 303

GFSFLT2_2pvu_pres_162.txt.gz
Presure
184 178 188 191 188 197 166 192 172 182 191 179 180 189 197 199 197 188 192 194 198 195 201 204 195 200 213 151 204 192 197 238
184 191 194 187 181 183 169 171 188 195 182 192 191 184 193 185 190 190 181 201 198 200 192 202 206 171 193 197 198 198 136 218
177 172 164 156 182 186 190 193 192 190 191 184 190 199 194 193 193 194 185 186 190 183 157 168 189 197 209 207 196 132 230 182
178 179 179 166 176 178 183 187 188 185 187 192 197 185 188 183 187 170 123 199 202 204 200 202 199 190 195 187 183 204 174 223
189 188 174 180 182 187 190 181 185 188 174 178 182 184 187 196 194 195 192 196 197 200 202 196 204 201 200 202 221 207 211 177
193 192 184 183 188 188 180 183 185 189 186 187 187 162 164 189 191 193 197 190 193 164 197 203 212 205 202 200 207 207 211 223
142 169 159 194 185 157 161 145 147 184 183 186 178 189 181 188 194 194 204 208 203 206 207 204 204 208 213 223 217 227 226 220
163 153 164 141 152 167 171 172 184 192 153 153 166 197 162 167 189 178 198 200 194 185 190 212 201 208 200 203 219 225 222 225
181 135 185 146 205 171 214 134 209 215 203 196 208 207 221 206 203 199 203 219 202 200 204 206 203 205 205 219 206 209 216 218
180 179 163 175 185 172 153 168 174 186 223 230 217 213 214 212 215 217 213 218 220 220 217 218 221 216 213 236 234 236 211 244
179 180 174 180 177 176 175 167 184 205 213 209 227 218 208 216 201 215 236 230 222 207 219 214 228 231 232 222 234 241 231 256
173 151 165 177 184 165 180 163 199 198 217 213 226 231 222 225 233 235 219 236 231 232 237 238 243 237 242 233 241 268 278 284
147 144 191 162 192 174 170 212 195 211 209 219 225 229 230 230 229 227 228 236 240 235 239 247 240 251 239 290 291 326 327 325
180 184 168 187 186 170 199 190 175 176 229 221 230 238 240 232 230 231 239 236 239 243 255 236 291 286 290 305 295 296 295 297
189 188 182 175 180 182 215 211 203 239 241 236 242 238 238 235 240 239 234 258 266 277 291 297 301 293 293 285 289 298 302 279
181 185 169 176 179 180 174 226 227 240 240 245 239 240 247 250 243 267 251 263 304 315 290 285 283 281 287 273 279 277 275 288
187 171 182 198 188 189 245 234 247 241 240 248 261 247 250 259 257 257 304 262 291 289 284 278 272 289 274 273 268 262 272 272
179 175 179 231 245 242 250 252 248 249 250 249 252 257 254 264 272 276 300 297 289 279 270 269 265 273 269 261 261 260 267 263
198 223 225 263 248 267 253 253 251 249 250 254 259 264 272 276 299 289 273 276 274 268 268 269 254 270 261 255 256 253 251 261
223 239 262 248 258 256 245 255 253 262 262 264 273 277 295 280 293 271 288 270 270 269 266 257 246 260 255 247 249 247 242 247

GFSFLT2_2pvu_pres_165.txt.gz
Presure
194 187 187 187 186 191 181 185 193 185 189 174 172 191 186 203 204 200 194 192 195 196 196 195 192 190 186 212 214 216 194 204
179 184 197 190 178 189 180 180 171 163 163 163 181 189 193 193 193 185 183 186 198 199 193 197 195 202 199 192 209 215 213 222
177 179 185 180 183 182 177 169 168 176 178 176 166 179 185 191 187 186 194 191 192 191 192 115 193 194 191 196 209 208 210 203
189 180 178 174 182 189 189 186 181 180 185 190 194 194 187 185 188 168 189 192 201 202 204 203 199 206 207 206 204 210 194 208
168 162 189 196 193 197 195 195 192 190 184 181 165 160 153 162 165 163 189 196 200 170 172 137 191 192 196 223 174 220 229 233
165 152 163 159 167 156 158 151 181 185 153 158 159 171 164 188 144 145 147 164 186 193 188 186 190 191 189 212 115 210 207 207
159 137 154 170 167 157 164 171 159 156 159 187 188 174 155 148 144 133 131 216 209 222 196 168 171 193 206 203 203 212 191 200
188 160 181 182 155 147 150 180 179 140 162 178 184 181 170 182 179 182 196 221 207 225 211 218 216 213 219 216 214 218 201 221
180 178 179 164 157 154 178 179 170 172 174 177 173 172 162 168 173 181 221 238 219 234 224 217 216 213 216 229 234 220 213 218
178 183 164 178 185 177 175 164 178 183 200 172 190 175 164 181 174 161 224 224 236 227 237 236 225 223 230 224 212 222 228 232
160 168 183 165 183 171 187 170 188 186 173 192 191 157 160 163 169 242 223 227 237 234 230 239 242 235 241 226 230 223 240 235
183 170 143 159 183 185 180 165 198 198 182 180 177 183 156 171 220 230 227 223 238 238 235 250 248 242 238 235 246 247 242 250
187 189 175 184 190 190 198 200 191 157 179 183 152 181 199 242 241 241 231 247 240 238 250 245 250 244 247 252 251 246 250 254
189 189 177 181 185 185 184 184 184 188 173 174 179 239 263 245 251 250 254 253 245 248 249 252 260 256 256 264 279 283 289 323
192 188 182 175 181 190 180 190 210 186 200 220 272 256 213 257 255 253 254 252 251 252 260 255 273 281 273 297 282 291 294 292
189 190 191 187 190 177 192 176 192 187 242 253 259 260 253 262 253 257 252 256 264 266 269 266 270 277 293 289 283 275 278 294
172 195 181 167 169 189 179 179 232 237 268 263 262 258 255 261 254 264 264 271 275 268 282 272 293 305 288 277 275 265 271 271
181 174 171 187 191 182 181 229 231 264 268 265 264 254 254 259 261 270 273 271 281 281 291 286 285 282 276 269 264 269 261 259
181 179 178 199 210 215 228 247 283 266 267 258 259 256 264 266 278 275 280 284 288 269 261 279 279 274 264 264 262 261 254 248
202 186 186 179 212 222 248 246 268 260 257 258 264 264 273 271 285 293 289 285 257 258 256 250 281 270 268 266 254 265 258 251

GFSFLT2_2pvu_pres_168.txt.gz
Presure
205 199 201 198 201 179 181 185 185 191 188 190 201 182 176 197 192 190 189 192 169 180 199 199 203 199 201 203 201 200 105 193
190 182 186 189 177 191 180 180 185 183 182 184 189 190 183 180 188 185 191 190 185 192 203 191 194 198 193 194 209 193 189 186
191 188 193 185 183 181 187 189 173 179 183 181 179 181 181 177 191 186 184 196 198 190 189 185 190 192 194 197 193 196 197 202
168 165 175 186 184 164 164 168 190 179 180 187 187 184 193 193 189 191 190 176 176 173 173 183 184 213 209 201 200 199 182 188
167 145 165 166 161 167 165 176 161 164 164 162 161 166 165 173 186 167 162 171 163 170 215 185 191 170 205 227 206 213 209 205
153 147 153 166 145 165 177 154 160 164 168 169 164 165 156 161 163 156 156 149 192 171 180 182 184 167 184 192 217 223 219 117
181 190 159 158 150 159 185 180 164 161 179 166 161 168 180 185 176 164 162 168 178 177 144 177 174 181 187 232 214 232 218 220
183 181 182 182 180 132 162 169 155 130 176 168 152 165 165 180 176 178 175 181 181 176 186 179 177 165 180 169 239 228 228 227
136 159 177 183 186 184 181 143 184 185 173 189 196 192 196 193 186 201 206 202 191 197 196 174 168 199 185 183 229 234 225 233
190 144 184 186 142 167 143 168 185 154 193 189 187 198 153 154 161 182 198 202 151 187 183 163 172 195 231 239 211 229 203 237
178 179 180 177 183 188 192 193 172 182 148 182 179 173 192 177 178 185 201 170 169 182 189 165 181 172 179 238 234 232 236 244
180 183 179 181 181 183 174 189 190 195 194 193 189 189 189 189 194 178 214 190 186 183 171 184 190 215 249 258 255 241 255 247
183 176 175 178 184 192 185 183 184 193 190 196 198 176 173 196 186 245 243 174 280 266 265 261 262 261 261 263 259 259 254 254
180 181 179 184 187 190 180 189 178 181 173 192 185 197 189 220 194 204 268 279 271 267 262 257 255 260 264 264 261 264 268 265
184 189 191 177 192 183 191 184 189 192 188 171 188 185 181 245 252 250 280 273 271 269 263 266 262 264 263 270 276 282 287 288
184 181 171 183 187 190 174 190 184 188 207 174 184 190 198 240 278 280 285 280 273 268 265 269 272 285 292 286 287 291 286 312
189 174 172 161 187 182 167 174 201 202 220 223 207 251 249 273 283 274 269 275 278 282 290 288 282 282 284 288 283 295 302 291
174 189 178 181 178 191 179 193 185 195 205 222 251 243 274 275 275 277 274 280 291 292 292 297 292 284 286 276 269 272 275 273
186 170 178 176 158 204 195 206 209 222 227 245 251 263 275 278 274 278 285 291 298 294 298 297 284 280 270 260 265 277 271 264
167 172 166 187 189 188 203 214 239 253 239 245 250 279 281 278 279 287 287 293 292 290 357 397 417 271 255 256 250 268 270 263